,,PressureMeas_1m,,PRMeasQMR101_1,,RHStat155_1m_1,,SRMeasQMS101R_1m,,TAStat155_1m_1,,GenWind_1,,GenWind_1,
2018-05-22, 07:00:06,VALID,916.32,VALID,0.0,VALID,97.632,VALID,53.963,VALID,20.529,INVALID,360.0,VALID,0.0,
2018-05-22, 07:01:06,VALID,916.306,VALID,0.0,VALID,97.613,VALID,55.131,VALID,20.506,INVALID,360.0,VALID,0.0,
2018-05-22, 07:02:06,VALID,916.311,VALID,0.0,VALID,97.599,VALID,56.896,VALID,20.488,INVALID,360.0,VALID,0.0,
2018-05-22, 07:03:06,VALID,916.306,VALID,0.0,VALID,97.655,VALID,59.975,VALID,20.495,VALID,136.0,VALID,0.0,
2018-05-22, 07:04:06,VALID,916.312,VALID,0.0,VALID,97.68,VALID,72.797,VALID,20.488,INVALID,360.0,VALID,0.0,
2018-05-22, 07:05:06,VALID,916.311,VALID,0.0,VALID,97.702,VALID,131.648,VALID,20.498,VALID,135.0,VALID,0.0,
2018-05-22, 07:06:06,VALID,916.314,VALID,0.0,VALID,97.796,VALID,146.695,VALID,20.538,VALID,138.0,VALID,0.0,
2018-05-22, 07:07:06,VALID,916.31,VALID,0.0,VALID,97.881,VALID,153.635,VALID,20.591,INVALID,360.0,VALID,0.0,
2018-05-22, 07:08:06,VALID,916.331,VALID,0.0,VALID,97.917,VALID,158.922,VALID,20.624,INVALID,360.0,VALID,0.0,
2018-05-22, 07:09:06,VALID,916.345,VALID,0.0,VALID,97.97,VALID,160.833,VALID,20.685,VALID,133.0,VALID,0.0,
2018-05-22, 07:10:06,VALID,916.354,VALID,0.0,VALID,98.028,VALID,140.65,VALID,20.739,INVALID,360.0,VALID,0.0,
2018-05-22, 07:11:06,VALID,916.354,VALID,0.0,VALID,97.969,VALID,106.605,VALID,20.769,INVALID,360.0,VALID,0.0,
2018-05-22, 07:12:06,VALID,916.359,VALID,0.0,VALID,97.919,VALID,89.199,VALID,20.776,VALID,132.0,VALID,0.0,
2018-05-22, 07:13:06,VALID,916.374,VALID,0.0,VALID,97.898,VALID,88.617,VALID,20.785,VALID,127.0,VALID,0.0,
2018-05-22, 07:14:06,VALID,916.377,VALID,0.0,VALID,97.774,VALID,102.067,VALID,20.774,VALID,112.0,VALID,0.0,
2018-05-22, 07:15:06,VALID,916.375,VALID,0.0,VALID,97.649,VALID,102.249,VALID,20.744,VALID,107.0,VALID,0.0,
2018-05-22, 07:16:06,VALID,916.365,VALID,0.0,VALID,97.607,VALID,101.127,VALID,20.751,VALID,89.0,VALID,0.0,
2018-05-22, 07:17:06,VALID,916.371,VALID,0.0,VALID,97.561,VALID,110.932,VALID,20.771,VALID,82.0,VALID,0.0,
2018-05-22, 07:18:06,VALID,916.38,VALID,0.0,VALID,97.596,VALID,178.253,VALID,20.804,VALID,101.0,VALID,0.0,
2018-05-22, 07:19:06,VALID,916.379,VALID,0.0,VALID,97.68,VALID,161.906,VALID,20.887,VALID,96.0,VALID,0.0,
2018-05-22, 07:20:06,VALID,916.369,VALID,0.0,VALID,97.629,VALID,198.995,VALID,20.933,VALID,79.0,VALID,0.0,
2018-05-22, 07:21:06,VALID,916.375,VALID,0.0,VALID,97.602,VALID,192.768,VALID,21.012,VALID,66.0,VALID,0.0,
2018-05-22, 07:22:06,VALID,916.388,VALID,0.0,VALID,97.472,VALID,179.234,VALID,21.08,VALID,82.0,VALID,0.0,
2018-05-22, 07:23:06,VALID,916.408,VALID,0.0,VALID,97.14,VALID,133.71,VALID,21.084,VALID,86.0,VALID,0.0,
2018-05-22, 07:24:06,VALID,916.42,VALID,0.0,VALID,97.058,VALID,130.288,VALID,21.129,VALID,70.0,VALID,0.0,
2018-05-22, 07:25:06,VALID,916.438,VALID,0.0,VALID,96.482,VALID,125.746,VALID,21.067,VALID,83.0,VALID,0.0,
2018-05-22, 07:26:06,VALID,916.441,VALID,0.0,VALID,96.558,VALID,113.44,VALID,21.067,VALID,52.0,VALID,0.0,
2018-05-22, 07:27:06,VALID,916.447,VALID,0.0,VALID,96.572,VALID,120.626,VALID,21.022,VALID,64.0,VALID,0.0,
2018-05-22, 07:28:06,VALID,916.45,VALID,0.0,VALID,96.744,VALID,153.829,VALID,20.999,VALID,60.0,VALID,0.0,
2018-05-22, 07:29:06,VALID,916.453,VALID,0.0,VALID,97.0,VALID,157.27,VALID,21.001,VALID,89.0,VALID,0.0,
2018-05-22, 07:30:06,VALID,916.436,VALID,0.0,VALID,97.205,VALID,133.722,VALID,21.006,VALID,88.0,VALID,0.0,
2018-05-22, 07:31:06,VALID,916.436,VALID,0.0,VALID,97.277,VALID,140.709,VALID,20.996,VALID,89.0,VALID,0.0,
2018-05-22, 07:32:06,VALID,916.434,VALID,0.0,VALID,97.248,VALID,170.227,VALID,21.005,VALID,96.0,VALID,0.0,
2018-05-22, 07:33:06,VALID,916.442,VALID,0.0,VALID,97.153,VALID,183.144,VALID,21.0,VALID,85.0,VALID,0.0,
2018-05-22, 07:34:06,VALID,916.436,VALID,0.0,VALID,96.959,VALID,179.156,VALID,20.98,VALID,77.0,VALID,0.0,
2018-05-22, 07:35:06,VALID,916.442,VALID,0.0,VALID,97.087,VALID,185.984,VALID,21.025,VALID,78.0,VALID,0.0,
2018-05-22, 07:36:06,VALID,916.461,VALID,0.0,VALID,97.115,VALID,199.493,VALID,21.079,VALID,71.0,VALID,0.0,
2018-05-22, 07:37:06,VALID,916.474,VALID,0.0,VALID,97.274,VALID,218.738,VALID,21.179,VALID,82.0,VALID,0.0,
2018-05-22, 07:38:06,VALID,916.498,VALID,0.0,VALID,97.082,VALID,204.104,VALID,21.253,VALID,78.0,VALID,0.0,
2018-05-22, 07:39:06,VALID,916.524,VALID,0.0,VALID,96.839,VALID,216.783,VALID,21.336,VALID,103.0,VALID,0.0,
2018-05-22, 07:40:06,VALID,916.56,VALID,0.0,VALID,96.529,VALID,257.334,VALID,21.39,VALID,109.0,VALID,0.0,
2018-05-22, 07:41:06,VALID,916.587,VALID,0.0,VALID,96.27,VALID,277.428,VALID,21.483,VALID,102.0,VALID,0.0,
2018-05-22, 07:42:06,VALID,916.617,VALID,0.0,VALID,96.231,VALID,300.038,VALID,21.627,VALID,108.0,VALID,0.0,
2018-05-22, 07:43:06,VALID,916.631,VALID,0.0,VALID,95.692,VALID,303.442,VALID,21.761,VALID,118.0,VALID,0.0,
2018-05-22, 07:44:06,VALID,916.652,VALID,0.0,VALID,94.361,VALID,238.346,VALID,21.835,VALID,109.0,VALID,0.0,
2018-05-22, 07:45:06,VALID,916.666,VALID,0.0,VALID,92.685,VALID,234.834,VALID,21.79,VALID,109.0,VALID,0.0,
2018-05-22, 07:46:06,VALID,916.652,VALID,0.0,VALID,93.16,VALID,198.324,VALID,21.806,VALID,104.0,VALID,0.0,
2018-05-22, 07:47:06,VALID,916.659,VALID,0.0,VALID,92.95,VALID,202.127,VALID,21.877,VALID,103.0,VALID,0.0,
2018-05-22, 07:48:06,VALID,916.668,VALID,0.0,VALID,92.906,VALID,249.675,VALID,21.928,VALID,126.0,VALID,0.0,
2018-05-22, 07:49:06,VALID,916.689,VALID,0.0,VALID,92.475,VALID,244.433,VALID,21.915,VALID,131.0,VALID,0.0,
2018-05-22, 07:50:06,VALID,916.708,VALID,0.0,VALID,92.577,VALID,287.683,VALID,21.924,VALID,119.0,VALID,0.0,
2018-05-22, 07:51:06,VALID,916.729,VALID,0.0,VALID,92.638,VALID,252.452,VALID,21.95,INVALID,360.0,VALID,0.0,
2018-05-22, 07:52:06,VALID,916.761,VALID,0.0,VALID,93.153,VALID,248.886,VALID,21.916,INVALID,360.0,VALID,0.0,
2018-05-22, 07:53:06,VALID,916.801,VALID,0.0,VALID,93.41,VALID,205.912,VALID,21.947,VALID,126.0,VALID,0.0,
2018-05-22, 07:54:06,VALID,916.811,VALID,0.0,VALID,93.016,VALID,223.319,VALID,21.98,INVALID,360.0,VALID,0.0,
2018-05-22, 07:55:06,VALID,916.835,VALID,0.0,VALID,92.552,VALID,314.038,VALID,22.016,VALID,128.0,VALID,0.0,
2018-05-22, 07:56:06,VALID,916.867,VALID,0.0,VALID,92.594,VALID,349.541,VALID,22.082,VALID,117.0,VALID,0.0,
2018-05-22, 07:57:06,VALID,916.887,VALID,0.0,VALID,92.695,VALID,355.143,VALID,22.198,VALID,107.0,VALID,0.0,
2018-05-22, 07:58:06,VALID,916.908,VALID,0.0,VALID,92.012,VALID,349.975,VALID,22.369,VALID,138.0,VALID,0.0,
2018-05-22, 07:59:06,VALID,916.927,VALID,0.0,VALID,90.633,VALID,360.117,VALID,22.436,INVALID,360.0,VALID,0.0,
2018-05-22, 08:00:06,VALID,916.927,VALID,0.0,VALID,90.386,VALID,360.161,VALID,22.445,INVALID,360.0,VALID,0.0,
2018-05-22, 08:01:06,VALID,916.941,VALID,0.0,VALID,90.885,VALID,365.294,VALID,22.562,VALID,113.0,VALID,0.0,
2018-05-22, 08:02:06,VALID,916.943,VALID,0.0,VALID,89.179,VALID,373.703,VALID,22.686,VALID,111.0,VALID,0.0,
2018-05-22, 08:03:06,VALID,916.961,VALID,0.0,VALID,89.141,VALID,375.356,VALID,22.823,VALID,121.0,VALID,0.0,
2018-05-22, 08:04:06,VALID,916.958,VALID,0.0,VALID,89.259,VALID,351.269,VALID,22.939,VALID,116.0,VALID,0.0,
2018-05-22, 08:05:06,VALID,916.973,VALID,0.0,VALID,89.236,VALID,383.557,VALID,23.088,VALID,118.0,VALID,0.0,
2018-05-22, 08:06:06,VALID,916.975,VALID,0.0,VALID,87.537,VALID,387.149,VALID,23.112,VALID,118.0,VALID,0.0,
2018-05-22, 08:07:06,VALID,916.978,VALID,0.0,VALID,87.593,VALID,391.826,VALID,23.15,VALID,128.0,VALID,0.0,
2018-05-22, 08:08:06,VALID,916.966,VALID,0.0,VALID,87.985,VALID,397.008,VALID,23.221,VALID,114.0,VALID,0.0,
2018-05-22, 08:09:06,VALID,916.97,VALID,0.0,VALID,87.329,VALID,399.737,VALID,23.43,VALID,115.0,VALID,0.0,
2018-05-22, 08:10:06,VALID,916.966,VALID,0.0,VALID,86.315,VALID,403.854,VALID,23.494,VALID,106.0,VALID,0.0,
2018-05-22, 08:11:06,VALID,916.971,VALID,0.0,VALID,85.961,VALID,404.825,VALID,23.536,VALID,123.0,VALID,0.0,
2018-05-22, 08:12:06,VALID,916.978,VALID,0.0,VALID,85.746,VALID,408.361,VALID,23.293,VALID,106.0,VALID,0.0,
2018-05-22, 08:13:06,VALID,916.99,VALID,0.0,VALID,86.156,VALID,414.021,VALID,23.25,VALID,108.0,VALID,0.0,
2018-05-22, 08:14:06,VALID,916.997,VALID,0.0,VALID,86.85,VALID,419.228,VALID,23.378,VALID,100.0,VALID,0.0,
2018-05-22, 08:15:06,VALID,917.014,VALID,0.0,VALID,86.185,VALID,422.585,VALID,23.53,VALID,110.0,VALID,0.0,
2018-05-22, 08:16:06,VALID,917.027,VALID,0.0,VALID,86.024,VALID,426.471,VALID,23.643,VALID,119.0,VALID,0.0,
2018-05-22, 08:17:06,VALID,917.044,VALID,0.0,VALID,84.857,VALID,430.576,VALID,23.765,VALID,134.0,VALID,0.0,
2018-05-22, 08:18:06,VALID,917.075,VALID,0.0,VALID,85.94,VALID,434.498,VALID,23.9,VALID,97.0,VALID,0.0,
2018-05-22, 08:19:06,VALID,917.109,VALID,0.0,VALID,85.441,VALID,438.106,VALID,24.078,VALID,89.0,VALID,0.0,
2018-05-22, 08:20:06,VALID,917.124,VALID,0.0,VALID,84.233,VALID,444.974,VALID,23.962,VALID,87.0,VALID,0.0,
2018-05-22, 08:21:06,VALID,917.152,VALID,0.0,VALID,86.262,VALID,446.49,VALID,23.859,VALID,92.0,VALID,0.0,
2018-05-22, 08:22:06,VALID,917.172,VALID,0.0,VALID,84.537,VALID,447.736,VALID,23.935,VALID,85.0,VALID,0.0,
2018-05-22, 08:23:06,VALID,917.193,VALID,0.0,VALID,85.326,VALID,455.069,VALID,23.909,VALID,60.0,VALID,0.0,
2018-05-22, 08:24:06,VALID,917.221,VALID,0.0,VALID,85.247,VALID,458.237,VALID,24.039,VALID,114.0,VALID,0.0,
2018-05-22, 08:25:06,VALID,917.224,VALID,0.0,VALID,84.284,VALID,460.848,VALID,24.243,INVALID,360.0,VALID,0.0,
2018-05-22, 08:26:06,VALID,917.243,VALID,0.0,VALID,83.098,VALID,464.872,VALID,24.442,VALID,119.0,VALID,0.0,
2018-05-22, 08:27:06,VALID,917.256,VALID,0.0,VALID,82.172,VALID,467.993,VALID,24.517,VALID,122.0,VALID,0.0,
2018-05-22, 08:28:06,VALID,917.27,VALID,0.0,VALID,82.51,VALID,464.274,VALID,24.458,VALID,127.0,VALID,0.0,
2018-05-22, 08:29:06,VALID,917.288,VALID,0.0,VALID,82.815,VALID,447.206,VALID,24.375,VALID,114.0,VALID,0.0,
2018-05-22, 08:30:06,VALID,917.309,VALID,0.0,VALID,83.556,VALID,447.498,VALID,24.312,VALID,113.0,VALID,0.0,
2018-05-22, 08:31:06,VALID,917.34,VALID,0.0,VALID,82.462,VALID,451.314,VALID,24.451,VALID,102.0,VALID,0.0,
2018-05-22, 08:32:06,VALID,917.365,VALID,0.0,VALID,81.074,VALID,453.865,VALID,24.582,VALID,126.0,VALID,0.0,
2018-05-22, 08:33:06,VALID,917.372,VALID,0.0,VALID,80.471,VALID,459.493,VALID,24.444,VALID,114.0,VALID,0.0,
2018-05-22, 08:34:06,VALID,917.39,VALID,0.0,VALID,80.956,VALID,467.943,VALID,24.407,VALID,90.0,VALID,0.0,
2018-05-22, 08:35:06,VALID,917.414,VALID,0.0,VALID,81.179,VALID,477.198,VALID,24.613,VALID,118.0,VALID,0.0,
2018-05-22, 08:36:06,VALID,917.424,VALID,0.0,VALID,79.082,VALID,484.51,VALID,24.836,INVALID,360.0,VALID,0.0,
2018-05-22, 08:37:06,VALID,917.432,VALID,0.0,VALID,77.956,VALID,491.33,VALID,24.956,VALID,110.0,VALID,0.0,
2018-05-22, 08:38:06,VALID,917.441,VALID,0.0,VALID,77.696,VALID,500.62,VALID,25.106,INVALID,360.0,VALID,0.0,
2018-05-22, 08:39:06,VALID,917.443,VALID,0.0,VALID,77.293,VALID,508.166,VALID,25.156,INVALID,360.0,VALID,0.0,
2018-05-22, 08:40:06,VALID,917.461,VALID,0.0,VALID,76.597,VALID,516.608,VALID,25.158,VALID,142.0,VALID,0.0,
2018-05-22, 08:41:06,VALID,917.465,VALID,0.0,VALID,76.05,VALID,521.029,VALID,25.153,INVALID,360.0,VALID,0.0,
2018-05-22, 08:42:06,VALID,917.489,VALID,0.0,VALID,77.098,VALID,522.162,VALID,25.019,INVALID,360.0,VALID,0.0,
2018-05-22, 08:43:06,VALID,917.515,VALID,0.0,VALID,78.203,VALID,524.891,VALID,25.083,INVALID,360.0,VALID,0.0,
2018-05-22, 08:44:06,VALID,917.52,VALID,0.0,VALID,76.939,VALID,528.566,VALID,24.999,INVALID,360.0,VALID,0.0,
2018-05-22, 08:45:06,VALID,917.556,VALID,0.0,VALID,77.049,VALID,530.585,VALID,24.985,INVALID,360.0,VALID,0.0,
2018-05-22, 08:46:06,VALID,917.578,VALID,0.0,VALID,76.082,VALID,535.183,VALID,24.992,VALID,148.0,VALID,0.0,
2018-05-22, 08:47:06,VALID,917.594,VALID,0.0,VALID,76.869,VALID,548.274,VALID,25.066,VALID,129.0,VALID,0.0,
2018-05-22, 08:48:06,VALID,917.602,VALID,0.0,VALID,76.842,VALID,566.272,VALID,25.143,INVALID,360.0,VALID,0.0,
2018-05-22, 08:49:06,VALID,917.624,VALID,0.0,VALID,76.314,VALID,569.355,VALID,25.087,INVALID,360.0,VALID,0.0,
2018-05-22, 08:50:06,VALID,917.622,VALID,0.0,VALID,79.076,VALID,569.263,VALID,25.048,INVALID,360.0,VALID,0.0,
2018-05-22, 08:51:06,VALID,917.621,VALID,0.0,VALID,80.238,VALID,567.177,VALID,24.785,INVALID,360.0,VALID,0.0,
2018-05-22, 08:52:06,VALID,917.62,VALID,0.0,VALID,81.53,VALID,558.199,VALID,24.495,INVALID,360.0,VALID,0.0,
2018-05-22, 08:53:06,VALID,917.608,VALID,0.0,VALID,82.354,VALID,551.754,VALID,24.479,INVALID,360.0,VALID,0.0,
2018-05-22, 08:54:06,VALID,917.6,VALID,0.0,VALID,81.918,VALID,543.756,VALID,24.67,VALID,302.0,VALID,0.0,
2018-05-22, 08:55:06,VALID,917.595,VALID,0.0,VALID,80.701,VALID,531.027,VALID,24.977,VALID,286.0,VALID,0.0,
2018-05-22, 08:56:06,VALID,917.572,VALID,0.0,VALID,80.412,VALID,516.379,VALID,24.944,INVALID,360.0,VALID,0.0,
2018-05-22, 08:57:06,VALID,917.565,VALID,0.0,VALID,80.58,VALID,502.699,VALID,25.016,VALID,30.0,VALID,0.0,
2018-05-22, 08:58:06,VALID,917.562,VALID,0.0,VALID,81.275,VALID,489.745,VALID,25.162,VALID,340.0,VALID,0.0,
2018-05-22, 08:59:06,VALID,917.567,VALID,0.0,VALID,79.025,VALID,466.76,VALID,25.433,VALID,302.0,VALID,0.0,
2018-05-22, 09:00:06,VALID,917.569,VALID,0.0,VALID,78.684,VALID,465.573,VALID,25.742,VALID,336.0,VALID,0.0,
2018-05-22, 09:01:06,VALID,917.567,VALID,0.0,VALID,77.915,VALID,350.021,VALID,25.703,INVALID,360.0,VALID,0.0,
2018-05-22, 09:02:06,VALID,917.573,VALID,0.0,VALID,77.713,VALID,175.812,VALID,25.579,INVALID,360.0,VALID,0.0,
2018-05-22, 09:03:06,VALID,917.585,VALID,0.0,VALID,77.864,VALID,173.49,VALID,25.321,VALID,296.0,VALID,0.0,
2018-05-22, 09:04:06,VALID,917.598,VALID,0.0,VALID,78.808,VALID,252.2,VALID,25.224,INVALID,360.0,VALID,0.0,
2018-05-22, 09:05:06,VALID,917.611,VALID,0.0,VALID,79.884,VALID,258.269,VALID,24.942,INVALID,360.0,VALID,0.0,
2018-05-22, 09:06:06,VALID,917.645,VALID,0.0,VALID,81.067,VALID,227.186,VALID,24.691,INVALID,360.0,VALID,0.0,
2018-05-22, 09:07:06,VALID,917.666,VALID,0.0,VALID,81.438,VALID,218.421,VALID,24.614,INVALID,360.0,VALID,0.0,
2018-05-22, 09:08:06,VALID,917.68,VALID,0.0,VALID,81.925,VALID,240.334,VALID,24.499,INVALID,360.0,VALID,0.0,
2018-05-22, 09:09:06,VALID,917.699,VALID,0.0,VALID,81.318,VALID,373.383,VALID,24.492,INVALID,360.0,VALID,0.0,
2018-05-22, 09:10:06,VALID,917.686,VALID,0.0,VALID,82.595,VALID,380.104,VALID,24.585,VALID,307.0,VALID,0.0,
2018-05-22, 09:11:06,VALID,917.699,VALID,0.0,VALID,81.856,VALID,390.021,VALID,24.845,VALID,349.0,VALID,0.0,
2018-05-22, 09:12:06,VALID,917.686,VALID,0.0,VALID,79.841,VALID,423.783,VALID,25.08,VALID,303.0,VALID,0.0,
2018-05-22, 09:13:06,VALID,917.671,VALID,0.0,VALID,78.887,VALID,676.508,VALID,25.092,VALID,266.0,VALID,0.0,
2018-05-22, 09:14:07,VALID,917.651,VALID,0.0,VALID,77.086,VALID,720.767,VALID,25.2,VALID,275.0,VALID,0.0,
2018-05-22, 09:15:07,VALID,917.613,VALID,0.0,VALID,77.637,VALID,745.777,VALID,25.512,VALID,351.0,VALID,0.0,
2018-05-22, 09:16:07,VALID,917.596,VALID,0.0,VALID,75.771,VALID,662.622,VALID,25.931,VALID,349.0,VALID,0.0,
2018-05-22, 09:17:07,VALID,917.569,VALID,0.0,VALID,74.206,VALID,550.983,VALID,26.15,VALID,15.0,VALID,0.0,
2018-05-22, 09:18:07,VALID,917.553,VALID,0.0,VALID,74.849,VALID,307.902,VALID,25.986,VALID,348.0,VALID,0.0,
2018-05-22, 09:19:07,VALID,917.546,VALID,0.0,VALID,75.587,VALID,266.652,VALID,25.77,VALID,1.0,VALID,0.0,
2018-05-22, 09:20:07,VALID,917.532,VALID,0.0,VALID,77.133,VALID,382.126,VALID,25.676,VALID,338.0,VALID,0.0,
2018-05-22, 09:21:07,VALID,917.517,VALID,0.0,VALID,75.396,VALID,363.414,VALID,25.605,VALID,319.0,VALID,0.0,
2018-05-22, 09:22:07,VALID,917.519,VALID,0.0,VALID,76.113,VALID,335.976,VALID,25.623,VALID,318.0,VALID,0.0,
2018-05-22, 09:23:07,VALID,917.503,VALID,0.0,VALID,76.513,VALID,645.658,VALID,25.642,VALID,338.0,VALID,0.0,
2018-05-22, 09:24:07,VALID,917.487,VALID,0.0,VALID,75.055,VALID,823.989,VALID,25.742,VALID,350.0,VALID,0.0,
2018-05-22, 09:25:07,VALID,917.466,VALID,0.0,VALID,74.645,VALID,837.217,VALID,25.896,VALID,6.0,VALID,0.0,
2018-05-22, 09:26:07,VALID,917.451,VALID,0.0,VALID,73.727,VALID,821.396,VALID,25.854,VALID,7.0,VALID,0.0,
2018-05-22, 09:27:07,VALID,917.421,VALID,0.0,VALID,74.381,VALID,625.333,VALID,26.005,VALID,2.0,VALID,0.0,
2018-05-22, 09:28:07,VALID,917.398,VALID,0.0,VALID,73.28,VALID,752.712,VALID,25.935,INVALID,360.0,VALID,0.0,
2018-05-22, 09:29:07,VALID,917.372,VALID,0.0,VALID,73.915,VALID,727.08,VALID,25.799,INVALID,360.0,VALID,0.0,
2018-05-22, 09:30:07,VALID,917.354,VALID,0.0,VALID,75.095,VALID,662.082,VALID,25.482,INVALID,360.0,VALID,0.0,
2018-05-22, 09:31:07,VALID,917.342,VALID,0.0,VALID,75.682,VALID,515.681,VALID,25.277,INVALID,360.0,VALID,0.0,
2018-05-22, 09:32:07,VALID,917.325,VALID,0.0,VALID,76.864,VALID,752.96,VALID,24.95,INVALID,360.0,VALID,0.0,
2018-05-22, 09:33:07,VALID,917.319,VALID,0.0,VALID,78.645,VALID,839.284,VALID,24.77,INVALID,360.0,VALID,0.0,
2018-05-22, 09:34:07,VALID,917.315,VALID,0.0,VALID,80.434,VALID,853.554,VALID,24.848,INVALID,360.0,VALID,0.0,
2018-05-22, 09:35:07,VALID,917.3,VALID,0.0,VALID,79.69,VALID,879.861,VALID,24.969,INVALID,360.0,VALID,0.0,
2018-05-22, 09:36:07,VALID,917.291,VALID,0.0,VALID,78.228,VALID,882.013,VALID,25.094,VALID,264.0,VALID,0.0,
2018-05-22, 09:37:07,VALID,917.279,VALID,0.0,VALID,77.235,VALID,884.549,VALID,25.191,VALID,287.0,VALID,0.0,
2018-05-22, 09:38:07,VALID,917.258,VALID,0.0,VALID,77.294,VALID,734.86,VALID,25.501,VALID,297.0,VALID,0.0,
2018-05-22, 09:39:07,VALID,917.245,VALID,0.0,VALID,77.82,VALID,357.581,VALID,25.671,INVALID,360.0,VALID,0.0,
2018-05-22, 09:40:07,VALID,917.254,VALID,0.0,VALID,74.819,VALID,343.614,VALID,25.411,INVALID,360.0,VALID,0.0,
2018-05-22, 09:41:07,VALID,917.255,VALID,0.0,VALID,74.769,VALID,350.809,VALID,25.009,INVALID,360.0,VALID,0.0,
2018-05-22, 09:42:07,VALID,917.261,VALID,0.0,VALID,76.816,VALID,347.151,VALID,24.802,INVALID,360.0,VALID,0.0,
2018-05-22, 09:43:07,VALID,917.269,VALID,0.0,VALID,77.882,VALID,374.017,VALID,24.835,INVALID,360.0,VALID,0.0,
2018-05-22, 09:44:07,VALID,917.281,VALID,0.0,VALID,77.926,VALID,357.228,VALID,24.771,INVALID,360.0,VALID,0.0,
2018-05-22, 09:45:07,VALID,917.29,VALID,0.0,VALID,78.216,VALID,336.934,VALID,24.688,INVALID,360.0,VALID,0.0,
2018-05-22, 09:46:07,VALID,917.287,VALID,0.0,VALID,78.182,VALID,500.879,VALID,24.517,INVALID,360.0,VALID,0.0,
2018-05-22, 09:47:07,VALID,917.297,VALID,0.0,VALID,80.24,VALID,400.457,VALID,24.483,INVALID,360.0,VALID,0.0,
2018-05-22, 09:48:07,VALID,917.304,VALID,0.0,VALID,80.353,VALID,312.258,VALID,24.46,INVALID,360.0,VALID,0.0,
2018-05-22, 09:49:07,VALID,917.307,VALID,0.0,VALID,80.612,VALID,320.65,VALID,24.565,INVALID,360.0,VALID,0.0,
2018-05-22, 09:50:07,VALID,917.311,VALID,0.0,VALID,79.697,VALID,323.375,VALID,24.736,INVALID,360.0,VALID,0.0,
2018-05-22, 09:51:07,VALID,917.311,VALID,0.0,VALID,79.456,VALID,296.939,VALID,24.795,INVALID,360.0,VALID,0.0,
2018-05-22, 09:52:07,VALID,917.328,VALID,0.0,VALID,80.111,VALID,301.171,VALID,24.72,INVALID,360.0,VALID,0.0,
2018-05-22, 09:53:07,VALID,917.326,VALID,0.0,VALID,79.518,VALID,345.784,VALID,24.649,INVALID,360.0,VALID,0.0,
2018-05-22, 09:54:07,VALID,917.338,VALID,0.0,VALID,80.026,VALID,395.508,VALID,24.595,INVALID,360.0,VALID,0.0,
2018-05-22, 09:55:07,VALID,917.357,VALID,0.0,VALID,80.081,VALID,465.422,VALID,24.614,INVALID,360.0,VALID,0.0,
2018-05-22, 09:56:07,VALID,917.359,VALID,0.0,VALID,79.968,VALID,604.247,VALID,24.551,INVALID,360.0,VALID,0.0,
2018-05-22, 09:57:07,VALID,917.362,VALID,0.0,VALID,79.853,VALID,713.07,VALID,24.502,INVALID,360.0,VALID,0.0,
2018-05-22, 09:58:07,VALID,917.351,VALID,0.0,VALID,80.714,VALID,532.156,VALID,24.621,INVALID,360.0,VALID,0.0,
2018-05-22, 09:59:07,VALID,917.349,VALID,0.0,VALID,79.506,VALID,351.792,VALID,24.714,INVALID,360.0,VALID,0.0,
2018-05-22, 10:00:07,VALID,917.334,VALID,0.0,VALID,79.957,VALID,493.912,VALID,24.825,INVALID,360.0,VALID,0.0,
2018-05-22, 10:01:07,VALID,917.333,VALID,0.0,VALID,79.433,VALID,319.312,VALID,24.941,INVALID,360.0,VALID,0.0,
2018-05-22, 10:02:07,VALID,917.328,VALID,0.0,VALID,79.234,VALID,266.075,VALID,24.963,VALID,255.0,VALID,0.0,
2018-05-22, 10:03:07,VALID,917.322,VALID,0.0,VALID,78.764,VALID,291.597,VALID,24.936,VALID,265.0,VALID,0.0,
2018-05-22, 10:04:07,VALID,917.32,VALID,0.0,VALID,80.203,VALID,539.524,VALID,24.967,VALID,293.0,VALID,0.0,
2018-05-22, 10:05:07,VALID,917.307,VALID,0.0,VALID,78.643,VALID,892.931,VALID,25.191,VALID,290.0,VALID,0.0,
2018-05-22, 10:06:07,VALID,917.304,VALID,0.0,VALID,79.189,VALID,668.288,VALID,25.386,VALID,263.0,VALID,0.0,
2018-05-22, 10:07:07,VALID,917.31,VALID,0.0,VALID,77.797,VALID,308.786,VALID,25.601,VALID,311.0,VALID,0.0,
2018-05-22, 10:08:07,VALID,917.32,VALID,0.0,VALID,78.236,VALID,282.932,VALID,25.798,VALID,322.0,VALID,0.0,
2018-05-22, 10:09:07,VALID,917.334,VALID,0.0,VALID,77.294,VALID,261.769,VALID,25.955,VALID,285.0,VALID,0.0,
2018-05-22, 10:10:07,VALID,917.359,VALID,0.0,VALID,76.343,VALID,269.696,VALID,25.994,VALID,293.0,VALID,0.0,
2018-05-22, 10:11:07,VALID,917.361,VALID,0.0,VALID,75.344,VALID,288.19,VALID,26.084,VALID,280.0,VALID,0.0,
2018-05-22, 10:12:07,VALID,917.349,VALID,0.0,VALID,74.739,VALID,289.693,VALID,26.03,VALID,281.0,VALID,0.0,
2018-05-22, 10:13:07,VALID,917.348,VALID,0.0,VALID,75.678,VALID,266.529,VALID,26.04,VALID,289.0,VALID,0.0,
2018-05-22, 10:14:07,VALID,917.323,VALID,0.0,VALID,75.88,VALID,278.468,VALID,26.025,VALID,357.0,VALID,0.0,
2018-05-22, 10:15:07,VALID,917.303,VALID,0.0,VALID,77.419,VALID,300.897,VALID,26.005,VALID,339.0,VALID,0.0,
2018-05-22, 10:16:07,VALID,917.283,VALID,0.0,VALID,77.061,VALID,317.304,VALID,26.006,VALID,312.0,VALID,0.0,
2018-05-22, 10:17:07,VALID,917.251,VALID,0.0,VALID,75.972,VALID,337.099,VALID,26.077,VALID,319.0,VALID,0.0,
2018-05-22, 10:18:07,VALID,917.242,VALID,0.0,VALID,75.587,VALID,489.755,VALID,26.187,VALID,322.0,VALID,0.0,
2018-05-22, 10:19:07,VALID,917.213,VALID,0.0,VALID,75.645,VALID,754.703,VALID,26.223,VALID,350.0,VALID,0.0,
2018-05-22, 10:20:07,VALID,917.196,VALID,0.0,VALID,76.49,VALID,915.876,VALID,26.281,VALID,333.0,VALID,0.0,
2018-05-22, 10:21:07,VALID,917.175,VALID,0.0,VALID,76.098,VALID,770.34,VALID,26.508,VALID,337.0,VALID,0.0,
2018-05-22, 10:22:07,VALID,917.15,VALID,0.0,VALID,74.884,VALID,689.946,VALID,26.761,VALID,340.0,VALID,0.0,
2018-05-22, 10:23:07,VALID,917.155,VALID,0.0,VALID,74.449,VALID,389.215,VALID,26.917,INVALID,360.0,VALID,0.0,
2018-05-22, 10:24:07,VALID,917.152,VALID,0.0,VALID,72.017,VALID,554.703,VALID,26.569,INVALID,360.0,VALID,0.0,
2018-05-22, 10:25:07,VALID,917.13,VALID,0.0,VALID,74.36,VALID,966.043,VALID,26.465,VALID,353.0,VALID,0.0,
2018-05-22, 10:26:07,VALID,917.113,VALID,0.0,VALID,73.279,VALID,947.504,VALID,26.672,INVALID,360.0,VALID,0.0,
2018-05-22, 10:27:07,VALID,917.095,VALID,0.0,VALID,73.719,VALID,943.768,VALID,26.807,VALID,297.0,VALID,0.0,
2018-05-22, 10:28:07,VALID,917.074,VALID,0.0,VALID,71.436,VALID,957.722,VALID,27.105,VALID,322.0,VALID,0.0,
2018-05-22, 10:29:07,VALID,917.064,VALID,0.0,VALID,69.745,VALID,984.749,VALID,27.192,VALID,279.0,VALID,0.0,
2018-05-22, 10:30:07,VALID,917.05,VALID,0.0,VALID,69.592,VALID,1006.968,VALID,26.822,VALID,279.0,VALID,0.0,
2018-05-22, 10:31:07,VALID,917.035,VALID,0.0,VALID,71.788,VALID,1010.437,VALID,26.666,VALID,321.0,VALID,0.0,
2018-05-22, 10:32:07,VALID,917.017,VALID,0.0,VALID,72.984,VALID,898.65,VALID,27.001,VALID,4.0,VALID,0.0,
2018-05-22, 10:33:07,VALID,917.018,VALID,0.0,VALID,70.422,VALID,950.944,VALID,27.392,VALID,319.0,VALID,0.0,
2018-05-22, 10:34:07,VALID,917.003,VALID,0.0,VALID,70.417,VALID,685.65,VALID,27.469,VALID,4.0,VALID,0.0,
2018-05-22, 10:35:07,VALID,917.004,VALID,0.0,VALID,69.951,VALID,368.058,VALID,27.54,VALID,30.0,VALID,0.0,
2018-05-22, 10:36:07,VALID,917.016,VALID,0.0,VALID,69.219,VALID,327.285,VALID,27.744,INVALID,360.0,VALID,0.0,
2018-05-22, 10:37:07,VALID,917.007,VALID,0.0,VALID,68.797,VALID,291.752,VALID,27.838,INVALID,360.0,VALID,0.0,
2018-05-22, 10:38:07,VALID,917.023,VALID,0.0,VALID,68.33,VALID,269.862,VALID,27.831,INVALID,360.0,VALID,0.0,